EZY59ZF EGKK-LGSR

Flight info

Callsign EZY59ZF
Flight time N/A
Altitude 35000
Route ODVIK Y311 DVR UL9 KONAN DCT KOK DCT RITAX DCT KRH DCT UTABA DCT BEMKI DCT ELMEM DCT DIRAB DCT PEVAL DCT UVODI DCT PINDO DCT PIKOS UL607 NETIS M601 PEXAN
Aircraft A320/M-SDE3FGHIRWY/LB1

Departure

Time 2026-05-07 10:39
Airport London Gatwick Airport (EGKK)

Arrival

Time N/A
Airport Santorini International Airport (LGSR)
Time Latitude Longitude Altitude Speed Heading
2026-05-07 10:20 51.15856 -0.17433 206 ft 0 kts 348°
2026-05-07 10:28 51.15847 -0.17430 217 ft 2 kts 347°
2026-05-07 10:28 51.15831 -0.17424 214 ft 2 kts 348°
2026-05-07 10:28 51.15815 -0.17419 210 ft 2 kts 348°
2026-05-07 10:29 51.15799 -0.17413 207 ft 2 kts 328°
2026-05-07 10:29 51.15785 -0.17398 215 ft 2 kts 310°
2026-05-07 10:29 51.15778 -0.17375 216 ft 2 kts 247°
2026-05-07 10:30 51.15783 -0.17342 216 ft 0 kts 253°
2026-05-07 10:31 51.15782 -0.17345 216 ft 2 kts 253°
2026-05-07 10:31 51.15774 -0.17401 216 ft 8 kts 259°
2026-05-07 10:31 51.15763 -0.17490 214 ft 10 kts 259°
2026-05-07 10:31 51.15744 -0.17635 212 ft 16 kts 257°
2026-05-07 10:32 51.15717 -0.17826 211 ft 19 kts 258°
2026-05-07 10:32 51.15686 -0.18052 215 ft 22 kts 258°
2026-05-07 10:32 51.15653 -0.18295 211 ft 22 kts 257°
2026-05-07 10:32 51.15621 -0.18524 208 ft 21 kts 257°
2026-05-07 10:33 51.15590 -0.18746 217 ft 20 kts 257°
2026-05-07 10:33 51.15502 -0.18812 211 ft 15 kts 170°
2026-05-07 10:33 51.15400 -0.18777 215 ft 15 kts 167°
2026-05-07 10:33 51.15300 -0.18741 207 ft 14 kts 168°
2026-05-07 10:34 51.15205 -0.18709 217 ft 14 kts 168°
2026-05-07 10:34 51.15129 -0.18744 213 ft 12 kts 249°
2026-05-07 10:34 51.15111 -0.18865 216 ft 10 kts 257°
2026-05-07 10:34 51.15097 -0.18965 218 ft 8 kts 258°
2026-05-07 10:35 51.15084 -0.19074 211 ft 14 kts 260°
2026-05-07 10:35 51.15058 -0.19264 207 ft 21 kts 258°
2026-05-07 10:35 51.15023 -0.19524 211 ft 25 kts 256°
2026-05-07 10:35 51.14984 -0.19796 214 ft 25 kts 257°
2026-05-07 10:36 51.14944 -0.20075 212 ft 26 kts 257°
2026-05-07 10:36 51.14905 -0.20360 207 ft 27 kts 258°
2026-05-07 10:36 51.14866 -0.20650 212 ft 27 kts 258°
2026-05-07 10:36 51.14825 -0.20940 219 ft 27 kts 257°
2026-05-07 10:37 51.14778 -0.21221 211 ft 25 kts 252°
2026-05-07 10:37 51.14711 -0.21396 213 ft 16 kts 180°
2026-05-07 10:37 51.14616 -0.21330 213 ft 14 kts 161°
2026-05-07 10:37 51.14532 -0.21250 215 ft 15 kts 126°
2026-05-07 10:38 51.14531 -0.21087 211 ft 18 kts 77°
2026-05-07 10:38 51.14597 -0.20601 209 ft 78 kts 78°
2026-05-07 10:38 51.14755 -0.19439 216 ft 134 kts 78°
2026-05-07 10:38 51.14981 -0.17759 267 ft 172 kts 79°
2026-05-07 10:39 51.15228 -0.15879 897 ft 173 kts 79°
2026-05-07 10:39 51.15496 -0.13992 1499 ft 180 kts 78°
2026-05-07 10:39 51.15784 -0.11944 1760 ft 200 kts 78°
2026-05-07 10:39 51.16098 -0.09672 1979 ft 221 kts 78°
2026-05-07 10:40 51.16447 -0.07143 2262 ft 246 kts 78°
2026-05-07 10:40 51.16815 -0.04402 2829 ft 257 kts 81°
2026-05-07 10:40 51.16870 -0.01558 3539 ft 263 kts 92°
2026-05-07 10:40 51.16815 0.01363 4271 ft 265 kts 92°
2026-05-07 10:41 51.16758 0.04310 5057 ft 268 kts 92°
2026-05-07 10:41 51.16701 0.07308 5690 ft 273 kts 92°
2026-05-07 10:41 51.16643 0.10337 5927 ft 275 kts 92°
2026-05-07 10:41 51.16584 0.13391 6668 ft 276 kts 92°
2026-05-07 10:42 51.16531 0.16460 7392 ft 278 kts 91°
2026-05-07 10:42 51.16519 0.19562 8089 ft 282 kts 90°
2026-05-07 10:42 51.16532 0.22696 8816 ft 284 kts 90°
2026-05-07 10:42 51.16550 0.25857 9548 ft 286 kts 90°
2026-05-07 10:43 51.16566 0.29048 10214 ft 289 kts 90°
2026-05-07 10:43 51.16579 0.32267 10853 ft 292 kts 90°
2026-05-07 10:43 51.16587 0.35522 11489 ft 295 kts 90°
2026-05-07 10:43 51.16591 0.38810 12119 ft 299 kts 90°
2026-05-07 10:44 51.16592 0.42138 12740 ft 302 kts 90°
2026-05-07 10:44 51.16593 0.45502 13366 ft 305 kts 90°
2026-05-07 10:44 51.16596 0.48902 13941 ft 309 kts 90°
2026-05-07 10:44 51.16597 0.52427 14103 ft 328 kts 90°
2026-05-07 10:45 51.16594 0.56152 14235 ft 345 kts 90°
2026-05-07 10:45 51.16589 0.60070 14378 ft 362 kts 90°
2026-05-07 10:45 51.16582 0.64168 14520 ft 378 kts 90°
2026-05-07 10:45 51.16574 0.68367 14849 ft 386 kts 90°
2026-05-07 10:46 51.16566 0.72661 15342 ft 390 kts 90°